Погода в Балтинаве

Латвия     56°56′48″N   27°38′41″E
темп.,
°C
ветер,
м/с
пор.,
м/с
влажн.,
%
обл.,
%
осадки,
мм/ч
давл.,
гПа
погр.,
м
21 января, пт
пт2123:00−3ю81592100 0.4 985908
02:00−4ююв6119299 0.6 985512
05:00−6всв229793 0.3 98739
08:00−5ссз249790 0.6 989126
11:00−4ссз379593 0.1 991433
14:00−3с2594100 0.2 993394
17:00−3с2498100 1.1 995295
20:00−5ссв389678 2.1 997305
22 января, сб
сб2223:00−7с489370 0.0 1001198
02:00−5с5119499 0.3 1004583
05:00−6с6119299 0.1 1007464
08:00−5ссз61395100 0.5 1009717
11:00−3с71387100 0.3 1011855
14:00−4с61190100 0.4 1013637
17:00−7с5109294 0.0 1016367
20:00−8с379698 0.1 1019149
23 января, вс
вс2323:00−9с249790 0.1 102184
02:00−11ссз239985 0.1 102344
05:00−13с1110097 0.0 102511
08:00−14с1110092 0.1 10279
11:00−10з009464 0.0 102960
14:00−7юз129177 0.0 1030115
17:00−10юз229653 0.0 103217
20:00−12ю229769 0.0 103334
24 января, пн
пн2423:00−9ююз359492 0.0 1034109
02:00−9ююз389452 0.0 1034161
05:00−10ююз38945 0.0 1034149
08:00−10ююз499225 0.0 1034185
11:00−7ююз411875 0.0 1032314
14:00−5ююз613835 0.0 1030444
17:00−6ююз6138417 0.0 1028356
20:00−5ююз71683100 0.0 1026442
25 января, вт
вт2523:00−4ююз61592100 0.1 1024515
02:00−4ююз61493100 0.2 1021502
05:00−2ююз61495100 0.3 1018491
08:00−1юз61295100 0.4 1017610
11:00+1зюз61293100 0.1 1016619
14:000зсз610836 0.1 1016647
17:00−3зсз511845 0.0 1017275
20:00−4зсз511856 0.0 1017315